| time (UTC) | temp C | wind direction | speed KPH | gust KPH | rain 1hr cm | rain 24hr cm | rain mn cm | humidity % | barometer mb |
| 20260506151224 | 13 | 174 | 4.8 | 8.0 | 0.00 | 0.00 | 0.00 | 67 | 1019.0 |
| 20260506150724 | 12 | 179 | 4.8 | 9.7 | 0.00 | 0.00 | 0.00 | 68 | 1019.1 |
| 20260506150224 | 12 | 193 | 4.8 | 11.3 | 0.00 | 0.00 | 0.00 | 68 | 1019.0 |
| 20260506150005 | 12 | 184 | 4.8 | 11.3 | 0.00 | 0.00 | 0.00 | 69 | 1019.0 |
| 20260506145225 | 12 | 200 | 6.4 | 12.9 | 0.00 | 0.00 | 0.00 | 70 | 1018.9 |
| 20260506144724 | 11 | 205 | 6.4 | 12.9 | 0.00 | 0.00 | 0.00 | 71 | 1018.8 |
| 20260506144227 | 11 | 179 | 6.4 | 14.5 | 0.00 | 0.00 | 0.00 | 72 | 1018.7 |
| 20260506143726 | 11 | 184 | 8.0 | 16.1 | 0.00 | 0.00 | 0.00 | 72 | 1018.7 |
| 20260506143454 | 11 | 164 | 8.0 | 16.1 | 0.00 | 0.00 | 0.00 | 73 | 1018.6 |
| 20260506142722 | 11 | 123 | 8.0 | 12.9 | 0.00 | 0.00 | 0.00 | 73 | 1018.7 |
| 20260506142217 | 11 | 174 | 8.0 | 16.1 | 0.00 | 0.00 | 0.00 | 74 | 1018.6 |
| 20260506141711 | 11 | 161 | 8.0 | 16.1 | 0.00 | 0.00 | 0.00 | 74 | 1018.6 |
| 20260506141205 | 11 | 167 | 9.7 | 14.5 | 0.00 | 0.00 | 0.00 | 75 | 1018.5 |
| 20260506140659 | 11 | 179 | 9.7 | 16.1 | 0.00 | 0.00 | 0.00 | 75 | 1018.4 |
| 20260506140149 | 10 | 184 | 9.7 | 16.1 | 0.00 | 0.00 | 0.00 | 76 | 1018.2 |
| 20260506135643 | 10 | 184 | 8.0 | 16.1 | 0.00 | 0.00 | 0.00 | 76 | 1018.2 |
| 20260506135136 | 10 | 164 | 9.7 | 16.1 | 0.00 | 0.00 | 0.00 | 76 | 1018.2 |
| 20260506134859 | 10 | 179 | 9.7 | 14.5 | 0.00 | 0.00 | 0.00 | 76 | 1018.1 |
| 20260506134120 | 10 | 174 | 9.7 | 16.1 | 0.00 | 0.00 | 0.00 | 75 | 1018.0 |
| 20260506134116 | 10 | 167 | 9.7 | 14.5 | 0.00 | 0.00 | 0.00 | 76 | 1018.0 |
| 20260506133110 | 10 | 184 | 8.0 | 16.1 | 0.00 | 0.00 | 0.00 | 75 | 1018.0 |
| 20260506132840 | 11 | 184 | 8.0 | 16.1 | 0.00 | 0.00 | 0.00 | 74 | 1018.0 |
| 20260506132108 | 11 | 192 | 8.0 | 16.1 | 0.00 | 0.00 | 0.00 | 74 | 1018.0 |
| 20260506131608 | 11 | 179 | 8.0 | 19.3 | 0.00 | 0.00 | 0.00 | 73 | 1017.9 |
| 20260506131340 | 11 | 161 | 8.0 | 19.3 | 0.00 | 0.00 | 0.00 | 73 | 1017.9 |
| 20260506130608 | 11 | 170 | 8.0 | 16.1 | 0.00 | 0.00 | 0.00 | 73 | 1017.8 |
| 20260506130107 | 11 | 153 | 8.0 | 14.5 | 0.00 | 0.00 | 0.00 | 71 | 1017.8 |
| 20260506125608 | 11 | 190 | 8.0 | 16.1 | 0.00 | 0.00 | 0.00 | 70 | 1017.8 |
| 20260506125110 | 12 | 174 | 9.7 | 19.3 | 0.00 | 0.00 | 0.00 | 70 | 1017.7 |
| 20260506124611 | 12 | 179 | 9.7 | 19.3 | 0.00 | 0.00 | 0.00 | 69 | 1017.7 |
| 20260506124110 | 12 | 146 | 9.7 | 17.7 | 0.00 | 0.00 | 0.00 | 69 | 1017.7 |
| 20260506123829 | 12 | 174 | 11.3 | 17.7 | 0.00 | 0.00 | 0.00 | 69 | 1017.7 |
| 20260506123318 | 12 | 155 | 11.3 | 17.7 | 0.00 | 0.00 | 0.00 | 70 | 1017.7 |
| 20260506122805 | 11 | 188 | 9.7 | 17.7 | 0.00 | 0.00 | 0.00 | 70 | 1017.6 |
| 20260506122022 | 11 | 161 | 11.3 | 19.3 | 0.00 | 0.00 | 0.00 | 70 | 1017.6 |
| 20260506121511 | 11 | 152 | 11.3 | 19.3 | 0.00 | 0.00 | 0.00 | 70 | 1017.7 |
| 20260506120958 | 11 | 179 | 11.3 | 19.3 | 0.00 | 0.00 | 0.00 | 70 | 1017.6 |
| 20260506120447 | 11 | 188 | 11.3 | 19.3 | 0.00 | 0.00 | 0.00 | 70 | 1017.6 |
| 20260506115934 | 11 | 184 | 9.7 | 16.1 | 0.00 | 0.00 | 0.00 | 70 | 1017.6 |
| 20260506115422 | 11 | 189 | 9.7 | 16.1 | 0.00 | 0.00 | 0.00 | 70 | 1017.6 |
| 20260506114903 | 11 | 158 | 9.7 | 16.1 | 0.00 | 0.00 | 0.00 | 70 | 1017.6 |
| 20260506114349 | 11 | 179 | 9.7 | 14.5 | 0.00 | 0.00 | 0.00 | 70 | 1017.5 |
| 20260506113839 | 12 | 174 | 8.0 | 17.7 | 0.00 | 0.00 | 0.00 | 71 | 1017.3 |
| 20260506113333 | 12 | 190 | 9.7 | 17.7 | 0.00 | 0.00 | 0.00 | 71 | 1017.2 |
| 20260506112828 | 12 | 153 | 11.3 | 17.7 | 0.00 | 0.00 | 0.00 | 71 | 1017.2 |
| 20260506112317 | 12 | 174 | 9.7 | 19.3 | 0.00 | 0.00 | 0.00 | 71 | 1017.2 |
| 20260506111811 | 12 | 205 | 9.7 | 19.3 | 0.00 | 0.00 | 0.00 | 71 | 1017.2 |
| 20260506111311 | 12 | 128 | 9.7 | 16.1 | 0.00 | 0.00 | 0.00 | 71 | 1017.2 |
| 20260506110814 | 12 | 174 | 9.7 | 14.5 | 0.00 | 0.00 | 0.00 | 71 | 1017.1 |
| 20260506110315 | 12 | 179 | 8.0 | 14.5 | 0.00 | 0.00 | 0.00 | 71 | 1017.1 |
| 20260506110311 | 12 | 159 | 8.0 | 14.5 | 0.00 | 0.00 | 0.00 | 72 | 1017.1 |
| 20260506105309 | 12 | 174 | 8.0 | 14.5 | 0.00 | 0.00 | 0.00 | 70 | 1017.1 |
| 20260506104810 | 12 | 159 | 9.7 | 17.7 | 0.00 | 0.00 | 0.00 | 69 | 1017.1 |
| 20260506104309 | 12 | 179 | 9.7 | 17.7 | 0.00 | 0.00 | 0.00 | 69 | 1017.0 |
| 20260506103809 | 12 | 179 | 9.7 | 19.3 | 0.00 | 0.00 | 0.00 | 68 | 1017.0 |
| 20260506103309 | 12 | 159 | 9.7 | 19.3 | 0.00 | 0.00 | 0.00 | 67 | 1017.0 |
| 20260506103040 | 12 | 118 | 8.0 | 16.1 | 0.00 | 0.00 | 0.00 | 65 | 1017.0 |
| 20260506102310 | 13 | 190 | 8.0 | 16.1 | 0.00 | 0.00 | 0.00 | 63 | 1017.0 |
| 20260506101808 | 13 | 139 | 8.0 | 14.5 | 0.00 | 0.00 | 0.00 | 60 | 1017.0 |
| 20260506101307 | 13 | 165 | 6.4 | 12.9 | 0.00 | 0.00 | 0.00 | 59 | 1017.0 |
| 20260506100807 | 13 | 161 | 6.4 | 11.3 | 0.00 | 0.00 | 0.00 | 59 | 1017.0 |
| 20260506100302 | 13 | 179 | 6.4 | 14.5 | 0.00 | 0.00 | 0.00 | 59 | 1017.0 |
| 20260506095755 | 13 | 198 | 6.4 | 14.5 | 0.00 | 0.00 | 0.00 | 59 | 1017.0 |
| 20260506095249 | 13 | 147 | 6.4 | 14.5 | 0.00 | 0.00 | 0.00 | 59 | 1017.1 |
| 20260506094740 | 13 | 174 | 6.4 | 14.5 | 0.00 | 0.00 | 0.00 | 59 | 1017.0 |
| 20260506094229 | 13 | 179 | 8.0 | 12.9 | 0.00 | 0.00 | 0.00 | 59 | 1017.0 |
| 20260506093725 | 13 | 197 | 8.0 | 19.3 | 0.00 | 0.00 | 0.00 | 60 | 1017.0 |
| 20260506093225 | 13 | 154 | 8.0 | 19.3 | 0.00 | 0.00 | 0.00 | 59 | 1017.0 |
| 20260506092725 | 13 | 174 | 8.0 | 16.1 | 0.00 | 0.00 | 0.00 | 58 | 1016.9 |
| 20260506092225 | 14 | 174 | 6.4 | 12.9 | 0.00 | 0.00 | 0.00 | 58 | 1016.9 |
| 20260506091724 | 14 | 165 | 6.4 | 12.9 | 0.00 | 0.00 | 0.00 | 58 | 1016.9 |
| 20260506091225 | 14 | 169 | 6.4 | 11.3 | 0.00 | 0.00 | 0.00 | 58 | 1016.9 |
| 20260506090725 | 14 | 141 | 6.4 | 11.3 | 0.00 | 0.00 | 0.00 | 57 | 1016.9 |
| 20260506090225 | 14 | 152 | 6.4 | 11.3 | 0.00 | 0.00 | 0.00 | 55 | 1016.9 |
| 20260506085728 | 15 | 133 | 6.4 | 14.5 | 0.00 | 0.00 | 0.00 | 53 | 1016.9 |
| 20260506085225 | 15 | 135 | 6.4 | 14.5 | 0.00 | 0.00 | 0.00 | 51 | 1017.0 |
| 20260506084724 | 15 | 162 | 4.8 | 9.7 | 0.00 | 0.00 | 0.00 | 49 | 1016.9 |
| 20260506084225 | 15 | 174 | 4.8 | 11.3 | 0.00 | 0.00 | 0.00 | 50 | 1017.0 |
| 20260506083724 | 15 | 184 | 4.8 | 11.3 | 0.00 | 0.00 | 0.00 | 49 | 1017.0 |
| 20260506083224 | 15 | 125 | 4.8 | 9.7 | 0.00 | 0.00 | 0.00 | 50 | 1016.9 |
| 20260506082722 | 15 | 161 | 4.8 | 9.7 | 0.00 | 0.00 | 0.00 | 50 | 1016.9 |
| 20260506082455 | 15 | 174 | 4.8 | 8.0 | 0.00 | 0.00 | 0.00 | 50 | 1016.9 |
| 20260506081730 | 15 | 114 | 3.2 | 6.4 | 0.00 | 0.00 | 0.00 | 50 | 1016.9 |
| 20260506081723 | 15 | 167 | 3.2 | 8.0 | 0.00 | 0.00 | 0.00 | 50 | 1017.0 |
| 20260506080953 | 15 | 179 | 3.2 | 6.4 | 0.00 | 0.00 | 0.00 | 49 | 1017.0 |
| 20260506080222 | 15 | 140 | 3.2 | 6.4 | 0.00 | 0.00 | 0.00 | 50 | 1016.9 |
| 20260506073442 | 14 | 97 | 0.0 | 3.2 | 0.00 | 0.00 | 0.00 | 51 | 1016.7 |
| 20260506072710 | 14 | 98 | 0.0 | 1.6 | 0.00 | 0.00 | 0.00 | 50 | 1016.6 |
| 20260506072210 | 15 | 94 | 1.6 | 4.8 | 0.00 | 0.00 | 0.00 | 49 | 1016.4 |
| 20260506071711 | 15 | 94 | 3.2 | 4.8 | 0.00 | 0.00 | 0.00 | 48 | 1016.4 |
| 20260506071210 | 15 | 94 | 3.2 | 4.8 | 0.00 | 0.00 | 0.00 | 47 | 1016.3 |
| 20260506070942 | 15 | 67 | 3.2 | 6.4 | 0.00 | 0.00 | 0.00 | 46 | 1016.3 |
| 20260506070213 | 15 | 70 | 3.2 | 6.4 | 0.00 | 0.00 | 0.00 | 44 | 1016.3 |
| 20260506062122 | 16 | 78 | 1.6 | 3.2 | 0.00 | 0.00 | 0.00 | 44 | 1015.9 |
| 20260506061615 | 16 | 74 | 1.6 | 4.8 | 0.00 | 0.00 | 0.00 | 42 | 1015.8 |
| 20260506061105 | 16 | 73 | 3.2 | 4.8 | 0.00 | 0.00 | 0.00 | 41 | 1015.7 |
| 20260506060555 | 15 | 73 | 3.2 | 4.8 | 0.00 | 0.00 | 0.00 | 42 | 1015.6 |
| 20260506051209 | 17 | 228 | 3.2 | 11.3 | 0.00 | 0.00 | 0.00 | 40 | 1011.9 |
| 20260506050427 | 17 | 96 | 3.2 | 12.9 | 0.00 | 0.00 | 0.00 | 38 | 1011.1 |
| 20260506045132 | 17 | 184 | 1.6 | 8.0 | 0.00 | 0.00 | 0.00 | 39 | 989.3 |
| 20260506044356 | 17 | 174 | 1.6 | 8.0 | 0.00 | 0.00 | 0.00 | 39 | 983.6 |
| 20260506043849 | 18 | 109 | 3.2 | 6.4 | 0.00 | 0.00 | 0.00 | 40 | 967.9 |
| 20260506043344 | 18 | 78 | 1.6 | 6.4 | 0.00 | 0.00 | 0.00 | 40 | 988.0 |
| 20260506042836 | 18 | 184 | 0.0 | 3.2 | 0.00 | 0.00 | 0.00 | 40 | 972.0 |
| 20260506042331 | 18 | 224 | 1.6 | 6.4 | 0.00 | 0.00 | 0.00 | 40 | 966.1 |
| 20260506041825 | 18 | 143 | 1.6 | 6.4 | 0.00 | 0.00 | 0.00 | 41 | 955.9 |
| 20260506041319 | 18 | 188 | 1.6 | 4.8 | 0.00 | 0.00 | 0.00 | 42 | 965.3 |
| 20260506040812 | 18 | 217 | 1.6 | 6.4 | 0.00 | 0.00 | 0.00 | 44 | 947.6 |
| 20260506040535 | 18 | 225 | 1.6 | 6.4 | 0.00 | 0.00 | 0.00 | 45 | 960.6 |
| 20260506035753 | 18 | 264 | 0.0 | 1.6 | 0.00 | 0.00 | 0.00 | 46 | 991.1 |
| 20260506035252 | 19 | 275 | 0.0 | 4.8 | 0.00 | 0.00 | 0.00 | 46 | 968.1 |
| 20260506035248 | 19 | 229 | 0.0 | 1.6 | 0.00 | 0.00 | 0.00 | 46 | 966.2 |
| 20260506034246 | 19 | 258 | 1.6 | 4.8 | 0.00 | 0.00 | 0.00 | 46 | 959.1 |
| 20260506033744 | 20 | 350 | 1.6 | 8.0 | 0.00 | 0.00 | 0.00 | 46 | 966.6 |
| 20260506033245 | 20 | 294 | 1.6 | 8.0 | 0.00 | 0.00 | 0.00 | 46 | 960.0 |
| 20260506032746 | 20 | 335 | 1.6 | 6.4 | 0.00 | 0.00 | 0.00 | 46 | 970.4 |
| 20260506032244 | 20 | 323 | 3.2 | 9.7 | 0.00 | 0.00 | 0.00 | 46 | 962.5 |
| 20260506031745 | 20 | 330 | 3.2 | 11.3 | 0.00 | 0.00 | 0.00 | 45 | 974.0 |
| 20260506031244 | 20 | 307 | 3.2 | 11.3 | 0.00 | 0.00 | 0.00 | 44 | 939.3 |
| 20260506030744 | 20 | 290 | 3.2 | 9.7 | 0.00 | 0.00 | 0.00 | 44 | 929.1 |
| 20260506030245 | 20 | 324 | 4.8 | 11.3 | 0.00 | 0.00 | 0.00 | 44 | 924.4 |
| 20260506025744 | 21 | 2 | 4.8 | 11.3 | 0.00 | 0.00 | 0.00 | 44 | 951.9 |
| 20260506025233 | 21 | 321 | 4.8 | 14.5 | 0.00 | 0.00 | 0.00 | 44 | 951.8 |
| 20260506024732 | 21 | 346 | 6.4 | 14.5 | 0.00 | 0.00 | 0.00 | 43 | 953.5 |
| 20260506024233 | 21 | 327 | 6.4 | 20.9 | 0.00 | 0.00 | 0.00 | 42 | 951.8 |
| 20260506023732 | 21 | 317 | 6.4 | 20.9 | 0.00 | 0.00 | 0.00 | 41 | 920.6 |
| 20260506023235 | 22 | 328 | 6.4 | 16.1 | 0.00 | 0.00 | 0.00 | 40 | 889.4 |
| 20260506022735 | 22 | 282 | 8.0 | 16.1 | 0.00 | 0.00 | 0.00 | 41 | 910.8 |
| 20260506022507 | 22 | 315 | 8.0 | 17.7 | 0.00 | 0.00 | 0.00 | 40 | 937.0 |
| 20260506021735 | 21 | 315 | 8.0 | 17.7 | 0.00 | 0.00 | 0.00 | 40 | 955.3 |
| 20260506021228 | 21 | 317 | 6.4 | 17.7 | 0.00 | 0.00 | 0.00 | 40 | 952.0 |
| 20260506020721 | 22 | 327 | 4.8 | 14.5 | 0.00 | 0.00 | 0.00 | 39 | 954.4 |
| 20260506020211 | 22 | 268 | 4.8 | 11.3 | 0.00 | 0.00 | 0.00 | 39 | 968.5 |
| 20260506015701 | 22 | 323 | 6.4 | 17.7 | 0.00 | 0.00 | 0.00 | 38 | 960.2 |
| 20260506015155 | 23 | 267 | 8.0 | 17.7 | 0.00 | 0.00 | 0.00 | 36 | 972.6 |
| 20260506014649 | 23 | 321 | 4.8 | 12.9 | 0.00 | 0.00 | 0.00 | 38 | 965.2 |
| 20260506014140 | 23 | 335 | 4.8 | 12.9 | 0.00 | 0.00 | 0.00 | 38 | 968.3 |
| 20260506013856 | 23 | 320 | 8.0 | 22.5 | 0.00 | 0.00 | 0.00 | 38 | 966.4 |
| 20260506013731 | 23 | 332 | 6.4 | 16.1 | 0.00 | 0.00 | 0.00 | 38 | 981.2 |
| 20260506012844 | 23 | 327 | 9.7 | 22.5 | 0.00 | 0.00 | 0.00 | 39 | 956.6 |
| 20260506012107 | 23 | 350 | 9.7 | 19.3 | 0.00 | 0.00 | 0.00 | 39 | 949.4 |
| 20260506011600 | 22 | 308 | 11.3 | 27.4 | 0.00 | 0.00 | 0.00 | 40 | 957.4 |
| 20260506011324 | 23 | 324 | 12.9 | 27.4 | 0.00 | 0.00 | 0.00 | 38 | 958.4 |
| 20260506010546 | 23 | 323 | 8.0 | 19.3 | 0.00 | 0.00 | 0.00 | 36 | 959.2 |
| 20260506010036 | 24 | 278 | 8.0 | 14.5 | 0.00 | 0.00 | 0.00 | 35 | 964.2 |
| 20260506005526 | 24 | 326 | 8.0 | 17.7 | 0.00 | 0.00 | 0.00 | 35 | 975.9 |
| 20260506005015 | 23 | 302 | 9.7 | 24.1 | 0.00 | 0.00 | 0.00 | 35 | 975.4 |
| 20260506004743 | 24 | 13 | 8.0 | 24.1 | 0.00 | 0.00 | 0.00 | 33 | 953.8 |
| 20260506004000 | 25 | 318 | 6.4 | 14.5 | 0.00 | 0.00 | 0.00 | 31 | 972.5 |
| 20260506003450 | 26 | 313 | 6.4 | 16.1 | 0.00 | 0.00 | 0.00 | 30 | 968.3 |
| 20260506002940 | 26 | 36 | 6.4 | 16.1 | 0.00 | 0.00 | 0.00 | 30 | 975.7 |
| 20260506002430 | 25 | 53 | 4.8 | 16.1 | 0.00 | 0.00 | 0.00 | 31 | 979.4 |
| 20260506002155 | 25 | 44 | 4.8 | 12.9 | 0.00 | 0.00 | 0.00 | 30 | 986.8 |
| 20260506001648 | 25 | 328 | 8.0 | 17.7 | 0.00 | 0.00 | 0.00 | 31 | 1002.4 |
| 20260506000907 | 25 | 88 | 6.4 | 17.7 | 0.00 | 0.00 | 0.00 | 30 | 1006.4 |
| 20260506000358 | 25 | 42 | 3.2 | 9.7 | 0.00 | 0.00 | 0.00 | 29 | 1009.5 |
| 20260505235847 | 26 | 332 | 4.8 | 12.9 | 0.00 | 0.00 | 0.00 | 27 | 999.9 |
| 20260505235342 | 27 | 342 | 6.4 | 17.7 | 0.00 | 0.00 | 0.00 | 26 | 1011.3 |
| 20260505234836 | 28 | 56 | 6.4 | 17.7 | 0.00 | 0.00 | 0.00 | 26 | 1009.4 |
| 20260505234330 | 28 | 79 | 4.8 | 17.7 | 0.00 | 0.00 | 0.00 | 26 | 1006.9 |
| 20260505233820 | 27 | 78 | 6.4 | 14.5 | 0.00 | 0.00 | 0.00 | 26 | 1013.0 |
| 20260505233309 | 27 | 28 | 6.4 | 16.1 | 0.00 | 0.00 | 0.00 | 27 | 1013.0 |
| 20260505232804 | 27 | 346 | 6.4 | 14.5 | 0.00 | 0.00 | 0.00 | 27 | 1012.5 |
| 20260505232258 | 27 | 10 | 4.8 | 14.5 | 0.00 | 0.00 | 0.00 | 28 | 1013.0 |
| 20260505231755 | 26 | 44 | 4.8 | 12.9 | 0.00 | 0.00 | 0.00 | 28 | 1013.0 |
| 20260505231256 | 26 | 53 | 6.4 | 16.1 | 0.00 | 0.00 | 0.00 | 28 | 1013.0 |
| 20260505230753 | 26 | 352 | 8.0 | 19.3 | 0.00 | 0.00 | 0.00 | 28 | 1012.6 |
| 20260505230525 | 26 | 311 | 6.4 | 19.3 | 0.00 | 0.00 | 0.00 | 28 | 1012.5 |
| 20260505225753 | 26 | 82 | 4.8 | 19.3 | 0.00 | 0.00 | 0.00 | 28 | 1013.0 |
| 20260505225254 | 26 | 38 | 4.8 | 19.3 | 0.00 | 0.00 | 0.00 | 28 | 1013.1 |
| 20260505225025 | 26 | 39 | 6.4 | 16.1 | 0.00 | 0.00 | 0.00 | 27 | 1013.0 |
| 20260505224257 | 26 | 24 | 6.4 | 17.7 | 0.00 | 0.00 | 0.00 | 28 | 1013.1 |
| 20260505223753 | 26 | 291 | 6.4 | 17.7 | 0.00 | 0.00 | 0.00 | 29 | 1013.1 |
| 20260505223254 | 26 | 348 | 6.4 | 14.5 | 0.00 | 0.00 | 0.00 | 27 | 1013.1 |
| 20260505222741 | 26 | 1 | 6.4 | 14.5 | 0.00 | 0.00 | 0.00 | 28 | 1013.2 |
| 20260505222229 | 26 | 48 | 6.4 | 14.5 | 0.00 | 0.00 | 0.00 | 28 | 1013.2 |
| 20260505221717 | 26 | 37 | 6.4 | 14.5 | 0.00 | 0.00 | 0.00 | 27 | 1013.2 |
| 20260505221210 | 26 | 40 | 4.8 | 14.5 | 0.00 | 0.00 | 0.00 | 27 | 1013.2 |
| 20260505220709 | 26 | 336 | 4.8 | 14.5 | 0.00 | 0.00 | 0.00 | 29 | 1013.2 |
| 20260505220210 | 26 | 324 | 4.8 | 16.1 | 0.00 | 0.00 | 0.00 | 28 | 1013.3 |
| 20260505215709 | 26 | 352 | 3.2 | 16.1 | 0.00 | 0.00 | 0.00 | 29 | 1013.3 |
| 20260505215214 | 26 | 47 | 6.4 | 14.5 | 0.00 | 0.00 | 0.00 | 29 | 1013.3 |
| 20260505215210 | 26 | 325 | 4.8 | 14.5 | 0.00 | 0.00 | 0.00 | 28 | 1013.2 |
| 20260505214210 | 25 | 319 | 6.4 | 14.5 | 0.00 | 0.00 | 0.00 | 29 | 1013.3 |
| 20260505213712 | 25 | 28 | 4.8 | 14.5 | 0.00 | 0.00 | 0.00 | 29 | 1013.4 |
| 20260505213202 | 25 | 83 | 3.2 | 12.9 | 0.00 | 0.00 | 0.00 | 30 | 1013.5 |
| 20260505212654 | 25 | 24 | 3.2 | 12.9 | 0.00 | 0.00 | 0.00 | 29 | 1013.4 |
| 20260505212150 | 25 | 51 | 4.8 | 12.9 | 0.00 | 0.00 | 0.00 | 29 | 1013.5 |
| 20260505211643 | 25 | 61 | 6.4 | 14.5 | 0.00 | 0.00 | 0.00 | 29 | 1013.6 |
| 20260505211415 | 25 | 44 | 6.4 | 16.1 | 0.00 | 0.00 | 0.00 | 29 | 1013.5 |
| 20260505210641 | 25 | 42 | 6.4 | 17.7 | 0.00 | 0.00 | 0.00 | 29 | 1013.5 |
| 20260505210141 | 25 | 322 | 6.4 | 17.7 | 0.00 | 0.00 | 0.00 | 29 | 1013.5 |
| 20260505205641 | 25 | 34 | 4.8 | 14.5 | 0.00 | 0.00 | 0.00 | 29 | 1013.5 |
| 20260505205139 | 25 | 65 | 4.8 | 14.5 | 0.00 | 0.00 | 0.00 | 30 | 1013.5 |
| 20260505204639 | 25 | 14 | 6.4 | 14.5 | 0.00 | 0.00 | 0.00 | 29 | 1013.5 |
| 20260505204139 | 25 | 340 | 4.8 | 14.5 | 0.00 | 0.00 | 0.00 | 31 | 1013.6 |
| 20260505203637 | 25 | 43 | 4.8 | 11.3 | 0.00 | 0.00 | 0.00 | 31 | 1013.5 |
| 20260505203135 | 25 | 22 | 6.4 | 14.5 | 0.00 | 0.00 | 0.00 | 30 | 1013.5 |
| 20260505202636 | 25 | 59 | 4.8 | 14.5 | 0.00 | 0.00 | 0.00 | 31 | 1013.5 |
| 20260505202407 | 25 | 293 | 4.8 | 11.3 | 0.00 | 0.00 | 0.00 | 31 | 1013.6 |
| 20260505201635 | 25 | 334 | 4.8 | 11.3 | 0.00 | 0.00 | 0.00 | 31 | 1013.6 |
| 20260505201131 | 25 | 327 | 4.8 | 11.3 | 0.00 | 0.00 | 0.00 | 32 | 1013.6 |
| 20260505200624 | 25 | 54 | 4.8 | 11.3 | 0.00 | 0.00 | 0.00 | 32 | 1013.8 |
| 20260505200118 | 25 | 88 | 4.8 | 12.9 | 0.00 | 0.00 | 0.00 | 31 | 1013.8 |
| 20260505195612 | 25 | 89 | 4.8 | 12.9 | 0.00 | 0.00 | 0.00 | 33 | 1013.8 |
| 20260505195106 | 25 | 318 | 4.8 | 14.5 | 0.00 | 0.00 | 0.00 | 32 | 1013.8 |
| 20260505194826 | 24 | 34 | 6.4 | 14.5 | 0.00 | 0.00 | 0.00 | 34 | 1013.9 |
| 20260505194047 | 24 | 67 | 4.8 | 12.9 | 0.00 | 0.00 | 0.00 | 34 | 1013.9 |
| 20260505194037 | 24 | 83 | 4.8 | 14.5 | 0.00 | 0.00 | 0.00 | 35 | 1013.9 |
| 20260505193032 | 24 | 352 | 4.8 | 14.5 | 0.00 | 0.00 | 0.00 | 34 | 1013.8 |
| 20260505192533 | 23 | 312 | 4.8 | 22.5 | 0.00 | 0.00 | 0.00 | 35 | 1013.9 |
| 20260505192033 | 23 | 90 | 4.8 | 22.5 | 0.00 | 0.00 | 0.00 | 35 | 1013.9 |
| 20260505191531 | 23 | 45 | 4.8 | 9.7 | 0.00 | 0.00 | 0.00 | 36 | 1013.9 |
| 20260505191029 | 23 | 59 | 3.2 | 8.0 | 0.00 | 0.00 | 0.00 | 37 | 1013.9 |
| 20260505190529 | 23 | 34 | 3.2 | 12.9 | 0.00 | 0.00 | 0.00 | 38 | 1013.9 |
| 20260505190259 | 23 | 354 | 4.8 | 12.9 | 0.00 | 0.00 | 0.00 | 37 | 1014.0 |
| 20260505185527 | 23 | 80 | 3.2 | 12.9 | 0.00 | 0.00 | 0.00 | 37 | 1013.9 |
| 20260505185027 | 23 | 316 | 3.2 | 11.3 | 0.00 | 0.00 | 0.00 | 37 | 1013.9 |
| 20260505184529 | 22 | 352 | 3.2 | 11.3 | 0.00 | 0.00 | 0.00 | 38 | 1014.0 |
| 20260505184257 | 22 | 352 | 3.2 | 11.3 | 0.00 | 0.00 | 0.00 | 38 | 1014.0 |
| 20260505183759 | 22 | 342 | 3.2 | 11.3 | 0.00 | 0.00 | 0.00 | 37 | 1014.0 |
| 20260505183636 | 22 | 35 | 3.2 | 9.7 | 0.00 | 0.00 | 0.00 | 39 | 1013.9 |
| 20260505183027 | 22 | 42 | 3.2 | 9.7 | 0.00 | 0.00 | 0.00 | 37 | 1014.0 |
| 20260505182013 | 21 | 73 | 4.8 | 9.7 | 0.00 | 0.00 | 0.00 | 38 | 1013.9 |
| 20260505181737 | 21 | 339 | 4.8 | 11.3 | 0.00 | 0.00 | 0.00 | 38 | 1014.0 |
| 20260505180955 | 21 | 315 | 4.8 | 11.3 | 0.00 | 0.00 | 0.00 | 38 | 1013.9 |
| 20260505180455 | 21 | 310 | 3.2 | 9.7 | 0.00 | 0.00 | 0.00 | 39 | 1013.9 |
| 20260505175955 | 20 | 58 | 1.6 | 9.7 | 0.00 | 0.00 | 0.00 | 41 | 1014.0 |
| 20260505175455 | 20 | 350 | 3.2 | 9.7 | 0.00 | 0.00 | 0.00 | 41 | 1014.0 |
| 20260505174954 | 20 | 353 | 3.2 | 8.0 | 0.00 | 0.00 | 0.00 | 41 | 1014.0 |
| 20260505174455 | 20 | 273 | 3.2 | 6.4 | 0.00 | 0.00 | 0.00 | 42 | 1014.0 |
| 20260505173954 | 19 | 66 | 3.2 | 8.0 | 0.00 | 0.00 | 0.00 | 43 | 1013.9 |
| 20260505173835 | 18 | 125 | 1.6 | 8.0 | 0.00 | 0.00 | 0.00 | 46 | 1013.9 |
| 20260505173728 | 19 | 45 | 3.2 | 8.0 | 0.00 | 0.00 | 0.00 | 43 | 1013.9 |
| 20260505172957 | 18 | 319 | 1.6 | 6.4 | 0.00 | 0.00 | 0.00 | 44 | 1013.9 |
| 20260505171943 | 17 | 340 | 1.6 | 8.0 | 0.00 | 0.00 | 0.00 | 48 | 1013.9 |
| 20260505171436 | 17 | 345 | 3.2 | 8.0 | 0.00 | 0.00 | 0.00 | 48 | 1013.9 |
| 20260505171432 | 17 | 262 | 1.6 | 6.4 | 0.00 | 0.00 | 0.00 | 46 | 1013.9 |
| 20260505170433 | 17 | 316 | 3.2 | 8.0 | 0.00 | 0.00 | 0.00 | 48 | 1013.9 |
| 20260505170203 | 16 | 19 | 1.6 | 6.4 | 0.00 | 0.00 | 0.00 | 49 | 1013.9 |
| 20260505165432 | 16 | 309 | 3.2 | 8.0 | 0.00 | 0.00 | 0.00 | 51 | 1013.9 |
| 20260505164935 | 16 | 256 | 3.2 | 8.0 | 0.00 | 0.00 | 0.00 | 51 | 1014.0 |
| 20260505164434 | 16 | 294 | 1.6 | 6.4 | 0.00 | 0.00 | 0.00 | 50 | 1014.0 |
| 20260505163934 | 16 | 333 | 1.6 | 8.0 | 0.00 | 0.00 | 0.00 | 49 | 1014.0 |
| 20260505163426 | 16 | 317 | 3.2 | 8.0 | 0.00 | 0.00 | 0.00 | 49 | 1014.0 |
| 20260505162920 | 16 | 78 | 3.2 | 6.4 | 0.00 | 0.00 | 0.00 | 49 | 1014.0 |
| 20260505162410 | 16 | 338 | 1.6 | 4.8 | 0.00 | 0.00 | 0.00 | 51 | 1014.0 |
| 20260505162402 | 15 | 275 | 1.6 | 6.4 | 0.00 | 0.00 | 0.00 | 53 | 1014.0 |
| 20260505161349 | 15 | 311 | 1.6 | 6.4 | 0.00 | 0.00 | 0.00 | 55 | 1013.9 |
| 20260505160844 | 15 | 279 | 1.6 | 4.8 | 0.00 | 0.00 | 0.00 | 56 | 1013.9 |
| 20260505160334 | 14 | 282 | 1.6 | 4.8 | 0.00 | 0.00 | 0.00 | 57 | 1013.9 |
| 20260505153240 | 12 | 136 | 0.0 | 4.8 | 0.00 | 0.00 | 0.00 | 64 | 1013.9 |
| 20260505153011 | 11 | 184 | 0.0 | 4.8 | 0.00 | 0.00 | 0.00 | 66 | 1013.9 |
| 20260505152240 | 11 | 194 | 0.0 | 0.0 | 0.00 | 0.00 | 0.00 | 67 | 1013.9 |
| 20260505151738 | 11 | 193 | 0.0 | 0.0 | 0.00 | 0.00 | 0.00 | 66 | 1013.9 |
| 20260505151510 | 11 | 256 | 0.0 | 0.0 | 0.00 | 0.00 | 0.00 | 65 | 1013.8 |